Regional Weather Roundup
Issued by NWS

Home | Current Version | Previous Version | Text Only | Print | Product List | Glossary On
Versions: 1 2 3 4 5 6 7 8 9 10 11 12 13 14 15 16 17 18 19 20 21 22 23 24 25 26 27 28 29 30 31 32 33 34 35 36 37 38 39 40 41 42 43 44 45 46 47 48 49 50
000
ASUS43 KMKX 271520
RWRWI

WISCONSIN REGIONAL WEATHER ROUNDUP
NATIONAL WEATHER SERVICE MILWAUKEE/SULLIVAN WI
900 AM CST TUE JAN 27 2015

NOTE: "FAIR" INDICATES FEW OR NO CLOUDS BELOW 12,000 FEET WITH NO
SIGNIFICANT WEATHER AND/OR OBSTRUCTIONS TO VISIBILITY.

WIZ001-002-006>008-014>016-023>028-271600-
NORTHWEST WISCONSIN

CITY           SKY/WX    TMP DP  RH WIND       PRES   REMARKS
SUPERIOR ARPT  CLOUDY    28  24  87 CALM      30.16S
ASHLAND        CLOUDY    27  22  81 W3        30.15R
HAYWARD        CLOUDY    26  21  81 CALM      30.14R
SIREN          CLOUDY    28  22  77 CALM      30.15S
CUMBERLAND     CLOUDY    27  21  80 CALM      30.14R
RICE LAKE      CLOUDY    28  24  87 CALM      30.16R
CHETEK         CLOUDY    27  23  84 CALM      30.15R
LADYSMITH      CLOUDY    26  22  86 CALM      30.15R
EAU CLAIRE     CLOUDY    27  22  81 CALM      30.16R
MENOMONIE      CLOUDY    28  24  85 CALM      30.16R
NEW RICHMOND   CLOUDY    29  22  74 CALM      30.16R
OSCEOLA        CLOUDY    30  23  74 CALM      30.18R
$$

WIZ003>005-009-010-017-018-271600-
NORTH CENTRAL WISCONSIN

CITY           SKY/WX    TMP DP  RH WIND       PRES   REMARKS
MANITOWISH WTR CLOUDY    20  19  98 S5        30.10R FOG     WCI  13
ARBOR VITAE    CLOUDY    22  20  92 SE3       30.10S FOG
WOODRUFF       CLOUDY    22  20  92 SE3       30.10S FOG
RHINELANDER    CLOUDY    20  18  92 E3        30.11R FOG
EAGLE RIVER    FLURRIES  20  17  87 CALM      30.10R
LAND O LAKES   FLURRIES  21  19  91 CALM      30.10S
PHILLIPS       CLOUDY    20  19  96 CALM      30.11R FOG
TOMAHAWK       CLOUDY    21  19  91 CALM      30.13R FOG
MEDFORD        CLOUDY    21  19  93 CALM      30.12R FOG
MERRILL        CLOUDY    22  22  99 CALM      30.13R FOG
$$

WIZ029-030-035-036-043>047-271600-
CENTRAL WISCONSIN

CITY           SKY/WX    TMP DP  RH WIND       PRES   REMARKS
WAUSAU         CLOUDY    22  20  92 E7        30.13R FOG     WCI  13
MOSINEE        LGT SNOW  21  21 100 E6        30.14R WCI  14
MARSHFIELD     CLOUDY    23  20  88 NE5       30.14R FOG     WCI  17
STEVENS POINT  CLOUDY    21  19  93 E3        30.15R FOG
WAUPACA        CLOUDY    26  22  84 CALM      30.17R
WAUTOMA        CLOUDY    24  23  96 CALM      30.16R FOG
WISC RAPIDS    CLOUDY    23  21  92 NE5       30.16R FOG     WCI  17
CAMP DOUGLAS   CLOUDY    25  25 100 CALM      30.16R
$$

WIZ011>013-019>022-031-037>040-048>050-271600-
NORTHEAST WISCONSIN

CITY           SKY/WX    TMP DP  RH WIND       PRES   REMARKS
ANTIGO         FLURRIES  20  19  96 SE6       30.13R WCI  12
SHAWANO        CLOUDY    25  20  83 NE3       30.18R
OCONTO         SUNNY     22  17  83 E3        30.19R
STURGEON BAY   CLOUDY    23  16  74 NE5       30.20R WCI  17
GREEN BAY      CLOUDY    24  17  74 NE10      30.18R WCI  14
MANITOWOC      SUNNY     27  17  66 CALM      30.17R
APPLETON       CLOUDY    25  18  74 E6        30.15R WCI  18
CLINTONVILLE   CLOUDY    25  19  80 E3        30.16R
OSHKOSH        CLOUDY    24  18  77 NE6       30.15R WCI  17
$$

WIZ032>034-041-042-053>061-271600-
SOUTHWEST WISCONSIN

CITY           SKY/WX    TMP DP  RH WIND       PRES   REMARKS
LA CROSSE      CLOUDY    30  21  69 NE5       30.17R WCI  25
SPARTA         CLOUDY    26  24  95 CALM      30.17R
VIROQUA        CLOUDY    26  23  89 N6        30.13R WCI  19
BOSCOBEL       CLOUDY    29  22  75 N7        30.16R WCI  22
PRAIRIE DU CHI CLOUDY    30  20  66 NE10      30.16R WCI  21
PLATTEVILLE    CLOUDY    27  23  83 N12G18    30.13R WCI  17
$$

WIZ056-057-062-063-064-067-068-271600-
SOUTH CENTRAL WISCONSIN

CITY           SKY/WX    TMP DP  RH WIND       PRES   REMARKS
REEDSBURG      CLOUDY    24  21  91 NE3       30.14R
BARABOO/DELLS  CLOUDY    24  21  91 CALM      30.14R FOG
LONE ROCK      CLOUDY    26  21  81 NE5       30.16R WCI  20
MINERAL POINT  CLOUDY    28  25  86 NE6       30.12R WCI  22
MADISON        CLOUDY    25  23  92 N8        30.14R FOG     WCI  16
MIDDLETON      CLOUDY    27  25  93 N6        30.14R WCI  20
WATERTOWN      CLOUDY    26  24  90 E6        30.13R WCI  20
MONROE         CLOUDY    25  25 100 N7        30.12R FOG     WCI  17
JANESVILLE     CLOUDY    28  27  93 N5        30.13R FOG     WCI  23
$$

WIZ051-052-058>065-066-070>072-271600-
SOUTHEAST WISCONSIN

CITY           SKY/WX    TMP DP  RH WIND       PRES   REMARKS
MILWAUKEE      CLOUDY    28  19  69 NE8       30.14R WCI  20
WAUKESHA       CLOUDY    25  21  86 E7        30.14R WCI  17
MILWAUKEE/TIMM CLOUDY    27  19  74 NE7       30.15R WCI  19
RACINE         CLOUDY    28  19  69 NE7       30.16R WCI  21
BURLINGTON     CLOUDY    26  21  83 NE6       30.13R WCI  19
KENOSHA        CLOUDY    28  21  75 NE12      30.13R WCI  18
FOND DU LAC    CLOUDY    25  18  74 NE7       30.15R WCI  17
SHEBOYGAN      SUNNY     26  15  63 NE13      30.15R WCI  15
WEST BEND      CLOUDY    27  18  69 NE9       30.14R WCI  17
JUNEAU         CLOUDY    25  21  85 NE8       30.15R WCI  16
$$

LSZ147-162-271600-
LAKE SUPERIOR

STATION/POSITION TIME  TEMP    WIND        PRES    WAVE
                       AIR SEA DIR/SP/G            HT/PER
                 (UTC) (F)     (DEG/KT/KT) (MB)    (FT/S)
DEVILS ISLAND    1500   29     110/  5/  6 1022.0R
PORT WING        1440   27     190/  2/  3 1021.3R
SAXON HARBOR     1400   26        CALM     1020.3R
$$

LMZ867-665-643>646-271600-
LAKE MICHIGAN

STATION/POSITION TIME  TEMP    WIND        PRES    WAVE
                       AIR SEA DIR/SP/G            HT/PER
                 (UTC) (F)     (DEG/KT/KT) (MB)    (FT/S)
NORTHPORT PIER   1400   24     340/  7/  9 1021.7R
SISTER BAY       1443   25      20/  9/ 10   N/A
KEWAUNEE LAKESHO 1400   23     350/  4/  7 1020.4R
SHEBOYGAN LAKESH 1500   26      50/ 10/ 13 1022.6R
PORT WASHINGTON  1440   29      60/ 10/ 14 1021.7R
MILWAUKEE LAKESH 1500   28      50/ 11/ 14   N/A
KENOSHA   LAKESH 1500   28      40/ 12/ 14 1020.7R
$$

TC  - TEMPERATURE IN CELSIUS
VSB - VISIBILITY IN STATUTE MILES
WCI - WIND CHILL INDEX
HX  - HEAT INDEX



USA.gov is the U.S. government's official web portal to all federal, state and local government web resources and services.